Flag for Czech Republic Weather past 2 weeks in Tábor, Czech Republic

Now
74 °F

Overcast.


Feels Like: 77 °F
Forecast: 59 / 88 °F
Wind: 6 mph from West

Location: Kocelovice

Current Time: Aug 28, 2015 at 10:40:04 AM

Latest Report: Aug 28, 2015 at 10:00 AM


Visibility: 44 mi

Pressure: 30.00 "Hg

Humidity: 58%

Dew point: 58 °F

Location of TáborLocation

Historic Weather in Tábor — Graph

°F

Tábor temperature yesterday

Maximum temperature yesterday: 87 °F (at 5:00 PM)
Minimum temperature yesterday: 50 °F (at 7:00 AM)
Average temperature yesterday: 72 °F

Past Weeks' High & Low Weather Summary

 TemperatureHumidityPressure
High91 °F (Aug 14, 3:00 PM)100% (Aug 19, 4:00 AM)30.26 "Hg (Aug 19, 4:00 AM)
Low46 °F (Aug 26, 4:00 AM)20% (Aug 26, 5:00 PM)29.66 "Hg (Aug 14, 4:00 PM)
Average65 °F66%29.95 "Hg
* Reported Aug 13 9:00 AM — Aug 28 9:00 AM, Tábor, Weather by CustomWeather, © 2015

Note: Actual official high and low records may vary slightly from our data, if they occured in-between our weather recording intervals... More about our weather records

Advertising

Tábor weather history for previous 24 hours

 ConditionsComfort  
Time TempWeatherWind HumidityBarometerVisibility
9:00 AM
Fri, Aug 28
72 °FOvercast.3 mph57%29.99 "Hg40 mi
8:00 AM70 °FOvercast.6 mph57%29.98 "Hg40 mi
7:00 AM69 °FMild.8 mph55%29.94 "Hg12 mi
5:00 AM59 °FCool.2 mph84%29.94 "Hg12 mi
4:00 AM59 °FCool.2 mph82%29.93 "Hg12 mi
3:00 AM61 °FCool.2 mph75%29.91 "Hg12 mi
2:00 AM63 °FMild.2 mph72%29.90 "Hg12 mi
1:00 AM67 °FMild.1 mph63%29.90 "Hg12 mi
10:00 PM
Thu, Aug 27
74 °FPassing clouds.3 mph47%29.89 "Hg47 mi
9:00 PM77 °FOvercast.3 mph42%29.87 "Hg47 mi
8:00 PM82 °FOvercast.N/A28%29.84 "Hg47 mi
7:00 PM84 °FOvercast.5 mph25%29.83 "Hg47 mi
6:00 PM87 °FOvercast.5 mph22%29.83 "Hg47 mi
5:00 PM87 °FOvercast.N/A21%29.84 "Hg47 mi
4:00 PM87 °FOvercast.3 mph22%29.85 "Hg47 mi
3:00 PM85 °FPartly sunny.5 mph24%29.87 "Hg47 mi
2:00 PM82 °FPartly sunny.5 mph26%29.89 "Hg47 mi
1:00 PM83 °FPartly sunny.N/A27%29.90 "Hg47 mi
12:00 PM78 °FOvercast.N/A35%29.93 "Hg47 mi
11:00 AM73 °FOvercast.N/A41%29.96 "Hg47 mi
10:00 AM67 °FOvercast.N/A50%29.99 "Hg47 mi
Weather by CustomWeather, © 2015

See weather overviewHow to use our weather pages